Weather History for Prerov, Czech Republic

Change the Weather History Date:

Saturday, February 16, 2013

  Actual Average Record
Temperature  
Mean Temperature 32 °F -  
Max Temperature 33 °F - - ()
Min Temperature 32 °F - - ()
Degree Days  
Heating Degree Days 32    
Moisture  
Dew Point 31 °F    
Average Humidity 94    
Maximum Humidity 100    
Minimum Humidity 93    
Precipitation  
Precipitation 0.00 in - - ()
Sea Level Pressure  
Sea Level Pressure 30.16 in    
Wind  
Wind Speed 1 mph ()    
Max Wind Speed 4 mph    
Max Gust Speed -    
Visibility 1.0 miles    
Events Fog , Rain , Snow    
T = Trace of Precipitation, MM = Missing Value Source: Averaged Metar Reports

Daily Weather History Graph

Daily Weather History Graph

Search for Another Location

Airport:

Trip Planner

Search our weather history database for the weather conditions in past years. The results will help you decide how hot, cold, wet, or windy it might be!

Date:

Astronomy

Feb. 16, 2013 Rise Set
Actual Time 6:57 AM CET 5:11 PM CET
Civil Twilight 6:24 AM CET 5:44 PM CET
Nautical Twilight 5:47 AM CET 6:22 PM CET
Astronomical Twilight 5:10 AM CET 6:58 PM CET
Moon 9:20 AM CET (2/16) No Moon Set
Length of Visible Light 11h 19m
Length of Day
10h 13m
Waxing Crescent, 37% of the Moon is Illuminated
Feb 16
Waxing Crescent
Feb 17
First Quarter
Feb 25
Full
Mar 4
Last Quarter
Mar 11
New

Hourly Weather History & Observations

Time (CET) Temp. Windchill Dew Point Humidity Pressure Visibility Wind Dir Wind Speed Gust Speed Precip Events Conditions
12:00 AM 32.0 °F - 32.0 °F 100% 30.12 in 0.6 mi West 2.3 mph - N/A   Overcast
1:00 AM 32.0 °F - 30.2 °F 93% 30.12 in 0.6 mi SSW 2.3 mph - N/A   Overcast
2:00 AM 32.0 °F - 32.0 °F 100% 30.12 in 0.9 mi SSW 1.2 mph - N/A   Overcast
3:00 AM 32.0 °F - 32.0 °F 100% 30.12 in 0.6 mi SSW 1.2 mph - N/A   Overcast
4:00 AM 32.0 °F - 32.0 °F 100% 30.12 in 0.6 mi Variable 1.2 mph - N/A   Overcast
5:00 AM 32.0 °F - 30.2 °F 93% 30.15 in 0.9 mi Calm Calm - N/A   Overcast
6:00 AM 32.0 °F - 30.2 °F 93% 30.15 in 0.9 mi Calm Calm - N/A   Overcast
6:11 AM 32.0 °F - 30.2 °F 93% 30.15 in 0.9 mi Calm Calm - N/A   Overcast
7:00 AM 32.0 °F - 30.2 °F 93% 30.15 in 0.7 mi Calm Calm - N/A   Overcast
8:00 AM 32.0 °F 28.7 °F 30.2 °F 93% 30.15 in 0.7 mi SW 3.5 mph - N/A   Overcast
9:00 AM 32.0 °F - 30.2 °F 93% 30.18 in 0.6 mi West 2.3 mph - N/A   Overcast
9:15 AM 32.0 °F - 30.2 °F 93% 30.18 in 0.4 mi WSW 2.3 mph - N/A Fog Fog
10:00 AM 33.8 °F - 32.0 °F 93% 30.18 in 0.4 mi West 1.2 mph - N/A Fog Fog
10:30 AM 33.8 °F - 32.0 °F 93% 30.18 in 0.5 mi WSW 1.2 mph - N/A Fog Fog
11:00 AM 33.8 °F - 32.0 °F 93% 30.18 in 0.7 mi Calm Calm - N/A   Overcast
12:00 PM 33.8 °F - 32.0 °F 93% 30.18 in 0.9 mi Calm Calm - N/A Snow Light Snow
1:00 PM 33.8 °F - 32.0 °F 93% 30.18 in 0.9 mi NNW 1.2 mph - N/A Snow Light Snow
2:00 PM 33.8 °F - 32.0 °F 93% 30.18 in 1.2 mi Calm Calm - N/A Snow Light Snow
3:00 PM 33.8 °F - 32.0 °F 93% 30.15 in 1.2 mi NW 2.3 mph - N/A   Overcast
4:00 PM 33.8 °F - 32.0 °F 93% 30.18 in 1.2 mi North 1.2 mph - N/A Rain Light Rain
5:00 PM 33.8 °F - 32.0 °F 93% 30.18 in 1.2 mi Calm Calm - N/A Rain Light Rain
6:00 PM 33.8 °F - 32.0 °F 93% 30.18 in 1.6 mi NNW 2.3 mph - N/A Rain Light Rain
7:00 PM 33.8 °F - 32.0 °F 93% 30.18 in 1.9 mi Calm Calm - N/A Rain Light Rain
8:00 PM 33.8 °F - 32.0 °F 93% 30.18 in 1.9 mi Calm Calm - N/A Rain Light Rain
9:00 PM 32.0 °F - 30.2 °F 93% 30.18 in 1.7 mi Calm Calm - N/A Snow Light Snow
10:00 PM 33.8 °F - 32.0 °F 93% 30.21 in 1.7 mi Calm Calm - N/A Snow Light Snow
11:00 PM 32.0 °F - 30.2 °F 93% 30.21 in 1.7 mi Variable 1.2 mph - N/A   Overcast